Weather History for Goshen, IN

Change the Weather History Date:

Friday, October 26, 2012

  Actual Average Record
Temperature  
Mean Temperature 44 °F -  
Max Temperature 53 °F 58 °F 80 °F (1963)
Min Temperature 39 °F 40 °F 24 °F (1962)
Degree Days  
Heating Degree Days 20    
Moisture  
Dew Point 37 °F    
Average Humidity 71    
Maximum Humidity 87    
Minimum Humidity 54    
Precipitation  
Precipitation 0.11 in - - ()
Sea Level Pressure  
Sea Level Pressure 30.17 in    
Wind  
Wind Speed 14 mph (NNW)    
Max Wind Speed 21 mph    
Max Gust Speed 26 mph    
Visibility 9 miles    
Events Rain    
Averages and records for this station are not official NWS values.
T = Trace of Precipitation, MM = Missing Value Source: NWS Daily Summary

Daily Weather History Graph

Daily Weather History Graph

Search for Another Location

Airport:

Trip Planner

Search our weather history database for the weather conditions in past years. The results will help you decide how hot, cold, wet, or windy it might be!

Date:

Astronomy

Oct. 26, 2012 Rise Set
Actual Time 8:08 AM EDT 6:45 PM EDT
Civil Twilight 7:39 AM EDT 7:13 PM EDT
Nautical Twilight 7:07 AM EDT 7:46 PM EDT
Astronomical Twilight 6:35 AM EDT 8:18 PM EDT
Moon 5:02 PM EDT (10/26) 5:02 AM EDT (10/26)
Length of Visible Light 11h 33m
Length of Day
10h 36m
Waxing Gibbous, 91% of the Moon is Illuminated
Oct 26
Waxing Gibbous
Oct 29
Full
Nov 6
Last Quarter
Nov 13
New
Nov 20
First Quarter

Hourly Weather History & Observations

Time (EDT) Temp. Windchill Dew Point Humidity Pressure Visibility Wind Dir Wind Speed Gust Speed Precip Events Conditions
1:40 AM 48.2 °F - 44.6 °F 87% 29.99 in 10.0 mi NW 12.7 mph - 0.01 in Rain Light Rain
1:53 AM 48.9 °F - 45.0 °F 86% 29.99 in 10.0 mi NW 15.0 mph 25.3 mph 0.02 in Rain Light Rain
2:39 AM 48.2 °F - 44.6 °F 87% 30.06 in 5.0 mi NW 20.7 mph 26.5 mph 0.03 in Rain Rain
2:53 AM 46.9 °F - 43.0 °F 86% 30.04 in 4.0 mi NW 15.0 mph 26.5 mph 0.07 in Rain Heavy Rain
2:57 AM 46.4 °F 40.4 °F 42.8 °F 87% 30.03 in 4.0 mi NNW 13.8 mph 25.3 mph 0.00 in Rain Rain
3:49 AM 46.4 °F 40.4 °F 42.8 °F 87% 30.06 in 10.0 mi NW 13.8 mph - 0.01 in Rain Light Rain
3:53 AM 46.9 °F - 42.1 °F 83% 30.07 in 10.0 mi NW 13.8 mph - 0.01 in Rain Light Rain
4:53 AM 46.0 °F 39.0 °F 41.0 °F 83% 30.10 in 10.0 mi NW 17.3 mph 24.2 mph 0.01 in Rain Light Rain
5:53 AM 45.0 °F 39.3 °F 39.0 °F 80% 30.12 in 10.0 mi NW 11.5 mph 24.2 mph 0.00 in   Overcast
6:53 AM 45.0 °F 38.2 °F 37.0 °F 74% 30.16 in 10.0 mi NW 15.0 mph 24.2 mph N/A   Overcast
7:53 AM 44.1 °F 37.4 °F 37.0 °F 76% 30.19 in 10.0 mi NNW 13.8 mph 19.6 mph N/A   Overcast
9:53 AM 45.0 °F 38.5 °F 35.1 °F 68% 30.22 in 10.0 mi North 13.8 mph - N/A   Overcast
10:53 AM 45.0 °F 37.6 °F 33.1 °F 63% 30.25 in 10.0 mi North 17.3 mph - N/A   Overcast
11:53 AM 46.9 °F - 34.0 °F 61% 30.25 in 10.0 mi NNW 12.7 mph - N/A   Scattered Clouds
12:53 PM 48.9 °F - 35.1 °F 59% 30.26 in 10.0 mi NNW 13.8 mph 20.7 mph N/A   Partly Cloudy
1:53 PM 48.9 °F - 33.1 °F 54% 30.25 in 10.0 mi NNW 16.1 mph - N/A   Partly Cloudy
2:53 PM 50.0 °F - 34.0 °F 54% 30.24 in 10.0 mi NNW 12.7 mph - N/A   Clear
3:53 PM 48.9 °F - 33.1 °F 54% 30.24 in 10.0 mi NNW 11.5 mph - N/A   Clear
4:53 PM 48.0 °F - 33.1 °F 56% 30.24 in 10.0 mi NNW 11.5 mph - N/A   Clear
5:53 PM 46.9 °F - 32.0 °F 56% 30.22 in 10.0 mi North 15.0 mph - N/A   Clear
6:53 PM 46.0 °F 41.4 °F 32.0 °F 58% 30.23 in 10.0 mi NNW 9.2 mph - N/A   Clear
7:53 PM 44.1 °F 39.5 °F 33.1 °F 65% 30.25 in 10.0 mi NNW 8.1 mph - N/A   Clear
8:53 PM 41.0 °F 35.2 °F 32.0 °F 70% 30.25 in 10.0 mi NNW 9.2 mph - N/A   Clear
9:53 PM 39.9 °F 35.8 °F 32.0 °F 73% 30.26 in 10.0 mi North 5.8 mph - N/A   Clear
10:53 PM 39.9 °F 35.8 °F 32.0 °F 73% 30.27 in 10.0 mi North 5.8 mph - N/A   Clear
11:53 PM 39.0 °F 34.8 °F 32.0 °F 76% 30.27 in 10.0 mi North 5.8 mph - N/A   Clear